Lexington Weather

Lexington, Massachusetts, USA

70°F
8/17/2022 6:58pm 
  • Lexington Conditions: Overcast
  • Temperature: 69.6°F / 20.9°CColder 0.6°F than last hour.
  • Dew Point: 57.4°FDecreased 1.8°Fsince last hour.
  • Relative Humidity: 65%Decreased 3.0% since last hour.
  • Wind: Calm, 10-min avg: Calm, gust: 3 mph
  • Barometer: 29.85 in Steady
  • Visibility: 10 miles
  • Rain Today: 0.00 in
  •   

Regional Weather Roundup
for Boston, MA

        
000
ASUS41 KBOX 161510
RWRBOX

REGIONAL WEATHER ROUNDUP
NATIONAL WEATHER SERVICE BOSTON/NORTON MA
1100 AM EDT TUE AUG 16 2022

NOTE:  "FAIR" INDICATES FEW OR NO CLOUDS BELOW 12,000 FEET WITH NO 
SIGNIFICANT WEATHER AND/OR OBSTRUCTIONS TO VISIBILITY.

MAZALL-161600-
EASTERN MASSACHUSETTS
  
CITY           SKY/WX    TMP DP  RH WIND       PRES   REMARKS
BOSTON         PTSUNNY   75  63  66 E13       30.06R                  
BEVERLY        MOSUNNY   73  62  68 NE10      30.06R                  
LAWRENCE       SUNNY     80  55  42 NE13G18   30.08                   
BEDFORD        SUNNY     79  55  43 NE15      30.04F                  
BLUE HILL      NOT AVBL                                               
NORWOOD        SUNNY     76  60  57 NE12      30.05R                  
MARSHFIELD     MOSUNNY   72  64  78 VRB6G17   30.05R                  
PLYMOUTH       CLOUDY    72  62  71 NE13G22   30.04S                  
TAUNTON          N/A    N/A N/A N/A MISG      30.03S                  
NEW BEDFORD    MOSUNNY   78  61  55 NE15      30.02R                  
$$

MAZALL-161600-
CAPE COD AND THE ISLANDS
  
CITY           SKY/WX    TMP DP  RH WIND       PRES   REMARKS
FALMOUTH       MOSUNNY   75  61  60 NE17G23   30.02S                  
HYANNIS        MOSUNNY   79  59  50 NE13      30.00S                  
CHATHAM        SUNNY     75  62  64 NE12G20   30.03R                  
NANTUCKET      MOSUNNY   77  63  61 NE20      30.00R                  
MARTHAS VNYRD  MOSUNNY   77  60  55 E18       30.01R                  
$$
 
MAZALL-161600-
CENTRAL AND WESTERN MASSACHUSETTS
  
CITY           SKY/WX    TMP DP  RH WIND       PRES   REMARKS
WORCESTER      SUNNY     74  51  44 NE8G18    30.08F                  
FITCHBURG      SUNNY     77  48  35 VRB7      30.08S                  
ORANGE         SUNNY     79  51  37 NE12G18   30.08F                  
SPRINGFIELD    PTSUNNY   78  51  38 NE12      30.03F                  
WESTFIELD      SUNNY     79  52  38 NE9       30.05F                  
NORTH ADAMS    SUNNY     77  54  44 E8        30.08S                  
PITTSFIELD     MOSUNNY  N/A N/A N/A E8G16     30.08S                  
$$
 
RIZALL-161600-
RHODE ISLAND
  
CITY           SKY/WX    TMP DP  RH WIND       PRES   REMARKS
PROVIDENCE     PTSUNNY   79  58  48 NE16      30.04R                  
NEWPORT        MOSUNNY   76  61  59 NE16      30.02S                  
BLOCK ISLAND   SUNNY     73  63  70 NE14G20   30.03R                  
SMITHFIELD     MOSUNNY   79  55  43 E12G23    30.06R                  
WESTERLY       SUNNY     78  58  49 NE10      30.02R                  
$$
 
CTZALL-161600-
CONNECTICUT
  
CITY           SKY/WX    TMP DP  RH WIND       PRES   REMARKS
BRADLEY INTL   PTSUNNY   77  54  44 N8        30.05F                  
HARTFORD       MOSUNNY   79  54  41 N9        30.03F                  
BRIDGEPORT     SUNNY     77  54  44 E9        30.04R                  
DANBURY        MOSUNNY   79  51  37 NE10      30.06S                  
GROTON         MOSUNNY   81  57  43 NE18      30.01R                  
NEW HAVEN      SUNNY     81  55  40 N8        30.03S                  
CHESTER        FAIR      79  54  41 NE7G14    30.04R                  
MERIDEN        SUNNY     78  53  41 VRB7      30.03F                  
WILLIMANTIC    SUNNY     78  56  46 NE8       30.04F                  
OXFORD         MOSUNNY   72  52  49 E10G16    30.07S                  
$$

MEZ002-015-021-024-NHZ003-005-008-011-012-014-VTZ005-008-161600-
NORTHERN NEW ENGLAND
  
CITY           SKY/WX    TMP DP  RH WIND       PRES   REMARKS
PORTLAND ME    MOSUNNY   77  57  50 NE7       30.09S                  
BANGOR ME      MOSUNNY   81  58  45 NE9       30.10F                  
CONCORD NH     SUNNY     79  53  40 E9        30.08S                  
MANCHESTER NH  MOSUNNY   80  52  37 VRB7G17   30.07S                  
NASHUA NH      SUNNY     78  54  43 E9        30.08S                  
PORTSMOUTH NH  MOSUNNY   77  46  33 E9G18     30.08R                  
JAFFREY NH     SUNNY     77  49  37 VRB3      30.10S                  
KEENE NH       SUNNY     76  53  44 VRB7        N/A                   
BURLINGTON VT  PTSUNNY   78  57  48 VRB3      30.09S                  
MT. WASHINGTON PTSUNNY   50  46  87 E24         N/A                   
$$

NYZ052-076-161600-
EASTERN NEW YORK
  
CITY           SKY/WX    TMP DP  RH WIND       PRES   REMARKS
ALBANY         PTSUNNY   77  58  51 N6        30.07S                  
NEW YORK CITY  PTSUNNY   75  54  47 NE15      30.03S                  
$$
 
ANZALL-161600-
MARINE OBSERVATIONS
  
STATION/POSITION TIME  TEMP    WIND        PRES    VSBY  WAVE
                       AIR SEA DIR/SP/G                  HT/PER
                 (UTC) (F)     (DEG/KT/KT) (MB)    (MI)  (FT/S)
BOSTON BUOY      NOT AVBL
BUZZARDS BAY     NOT AVBL
NANTUCKET SOUND  NOT AVBL
MASS BAY-STELLWA NOT AVBL
ISLE OF SHOALS   NOT AVBL
S OF BLOCK IS    NOT AVBL
$$

......................KEY.........................
  SKY/WX - SKY CONDITION/PRESENT WEATHER
  TMP    - TEMPERATURE IN FAHRENHEIT
  DWPT   - DEWPOINT IN FAHRENHEIT
  RH     - RELATIVE HUMIDITY IN PERCENT
  WIND   - DIRECTION AND SPEED IN MPH
  PRES   - MEAN SEA LEVEL PRESSURE IN INCHES OF HG
  WCI    - WIND CHILL INDEX
  VSB    - VISIBILITY IN MILES
  HX     - HEAT INDEX
  TC     - TEMPERATURE IN CELSIUS
  VRB    - VARIABLE WIND DIRECTION
  N/A    - NOT AVAILABLE
  
      

Other recent Regional Weather Roundups

Wed Aug 17, 6:10pm

Wed Aug 17, 5:10pm

Wed Aug 17, 4:10pm

Wed Aug 17, 3:10pm

Wed Aug 17, 2:10pm

Wed Aug 17, 1:10pm

Wed Aug 17, 12:10pm

Wed Aug 17, 11:10am

Wed Aug 17, 10:10am

Wed Aug 17, 9:10am

Wed Aug 17, 8:10am

Wed Aug 17, 7:10am

Wed Aug 17, 6:10am

Wed Aug 17, 5:10am

Wed Aug 17, 4:10am

Wed Aug 17, 3:10am

Wed Aug 17, 2:10am

Wed Aug 17, 1:10am

Wed Aug 17, 12:10am

Tue Aug 16, 11:10pm

Tue Aug 16, 10:10pm

Tue Aug 16, 9:10pm

Tue Aug 16, 8:10pm

Tue Aug 16, 7:10pm

Tue Aug 16, 6:10pm

Tue Aug 16, 5:10pm

Tue Aug 16, 4:10pm

Tue Aug 16, 3:10pm

Tue Aug 16, 2:10pm

Tue Aug 16, 1:10pm

Tue Aug 16, 12:10pm

Tue Aug 16, 10:10am

Tue Aug 16, 9:10am

Tue Aug 16, 8:10am

Tue Aug 16, 7:10am

Tue Aug 16, 6:10am

Tue Aug 16, 5:10am

Tue Aug 16, 4:10am

Tue Aug 16, 3:10am

Tue Aug 16, 2:10am

Tue Aug 16, 1:10am

Tue Aug 16, 12:10am

Mon Aug 15, 11:10pm

Mon Aug 15, 10:10pm

Mon Aug 15, 9:10pm

Mon Aug 15, 8:10pm

Mon Aug 15, 7:10pm

Mon Aug 15, 6:10pm

Mon Aug 15, 5:10pm

Mon Aug 15, 4:10pm

Mon Aug 15, 3:10pm

Mon Aug 15, 2:10pm

Mon Aug 15, 1:10pm

Mon Aug 15, 12:10pm

Mon Aug 15, 11:10am

Mon Aug 15, 10:10am

Mon Aug 15, 9:10am

Mon Aug 15, 8:10am

Mon Aug 15, 7:10am

Mon Aug 15, 6:10am

Mon Aug 15, 5:10am

Mon Aug 15, 4:10am

Mon Aug 15, 3:10am

Mon Aug 15, 2:10am

Mon Aug 15, 1:10am

Mon Aug 15, 12:10am

Sun Aug 14, 11:10pm

Sun Aug 14, 10:10pm

Sun Aug 14, 9:10pm

Sun Aug 14, 8:10pm

Sun Aug 14, 7:10pm

Sun Aug 14, 6:10pm

Sun Aug 14, 5:10pm

Sun Aug 14, 4:10pm

Sun Aug 14, 3:10pm

Sun Aug 14, 2:10pm

Sun Aug 14, 1:10pm

Sun Aug 14, 12:10pm

Sun Aug 14, 11:10am

Sun Aug 14, 10:10am

Sun Aug 14, 9:10am

Sun Aug 14, 8:10am

Sun Aug 14, 7:10am

Sun Aug 14, 6:10am

Sun Aug 14, 5:10am

Sun Aug 14, 4:10am

Sun Aug 14, 3:10am

Sun Aug 14, 2:10am

Sun Aug 14, 1:10am

Sun Aug 14, 12:10am

Sat Aug 13, 11:10pm

Sat Aug 13, 10:10pm

Sat Aug 13, 9:10pm

Sat Aug 13, 8:10pm

Sat Aug 13, 7:10pm

Sat Aug 13, 6:10pm

Sat Aug 13, 5:10pm

Sat Aug 13, 4:10pm

Sat Aug 13, 3:10pm

Sat Aug 13, 2:10pm

Sat Aug 13, 1:10pm

Sat Aug 13, 12:10pm

Sat Aug 13, 11:10am

Sat Aug 13, 10:10am

Sat Aug 13, 9:10am

Sat Aug 13, 8:10am

Sat Aug 13, 7:10am

Sat Aug 13, 6:10am

Sat Aug 13, 5:10am

Sat Aug 13, 4:10am

Sat Aug 13, 3:10am

Sat Aug 13, 2:10am

Sat Aug 13, 1:10am

Sat Aug 13, 12:10am

Fri Aug 12, 11:10pm

Fri Aug 12, 10:10pm

Fri Aug 12, 9:10pm

Fri Aug 12, 8:10pm

Fri Aug 12, 7:10pm

Fri Aug 12, 6:10pm

Fri Aug 12, 5:10pm

Fri Aug 12, 4:10pm

Fri Aug 12, 3:10pm

Fri Aug 12, 2:10pm

Fri Aug 12, 1:10pm

Fri Aug 12, 12:10pm

Fri Aug 12, 11:10am

Fri Aug 12, 10:10am

Fri Aug 12, 9:10am

Fri Aug 12, 8:10am

Fri Aug 12, 7:10am

Fri Aug 12, 6:10am

Fri Aug 12, 5:10am

Fri Aug 12, 4:10am

Fri Aug 12, 3:10am

Fri Aug 12, 2:10am

Fri Aug 12, 1:10am

Fri Aug 12, 12:10am

Thu Aug 11, 11:10pm

Thu Aug 11, 10:10pm

Thu Aug 11, 9:10pm

Thu Aug 11, 8:10pm

Thu Aug 11, 7:10pm

Thu Aug 11, 6:10pm

Thu Aug 11, 5:10pm

Thu Aug 11, 4:10pm

Thu Aug 11, 3:10pm

Thu Aug 11, 2:10pm

Thu Aug 11, 1:10pm

Thu Aug 11, 12:10pm

Thu Aug 11, 11:10am

Thu Aug 11, 10:10am

Thu Aug 11, 9:10am

Thu Aug 11, 8:10am

Thu Aug 11, 7:10am

Thu Aug 11, 6:10am

Thu Aug 11, 5:10am

Thu Aug 11, 4:10am

Thu Aug 11, 3:10am

Thu Aug 11, 2:10am

Thu Aug 11, 1:10am

Thu Aug 11, 12:10am

Wed Aug 10, 11:10pm

Wed Aug 10, 10:10pm

Wed Aug 10, 9:10pm

Wed Aug 10, 8:10pm

Wed Aug 10, 7:10pm

Meta data:

ID: 6922e80f-e327-493a-b911-74cb88ccd4e6
Link: https://api.weather.gov/products/6922e80f-e327-493a-b911-74cb88ccd4e6